Regional Weather Roundup
Issued by NWS

Home | Current Version | Previous Version | Text Only | Print | Product List | Glossary On
Versions: 1 2 3 4 5 6 7 8 9 10 11 12 13 14 15 16 17 18 19 20 21 22 23 24 25 26 27 28 29 30 31 32 33 34 35 36 37 38 39 40 41 42 43 44 45 46 47 48 49 50
000
ASUS43 KOAX 251602
RWRNE

WEATHER ROUNDUP FOR NEBRASKA
NATIONAL WEATHER SERVICE OMAHA NE
1100 AM CDT THU AUG 25 2016

NOTES: SATELLITE DATA IS BEING USED TO AUGMENT CLOUD COVER ABOVE
       12000 FEET.
       "FAIR" INDICATES FEW OR NO CLOUDS BELOW 12,000 FEET WITH NO
       SIGNIFICANT WEATHER AND/OR OBSTRUCTIONS TO VISIBILITY.

  * THESE STATIONS DO NOT REPORT WEATHER SUCH AS RAIN...SNOW OR FOG.

NEZ001>004-019>022-054>056-251700-
NEBRASKA PANHANDLE

CITY           SKY/WX    TMP DP  RH WIND       PRES   REMARKS
SCOTTSBLUFF    CLOUDY    61  44  53 NE10      30.32F
ALLIANCE       CLOUDY    59  44  57 NE14      30.32R
CHADRON        CLOUDY    54  46  74 CALM      30.33S
KIMBALL        SUNNY     59  50  72 NE13      30.33R
SIDNEY         SUNNY     62  47  57 NE13      30.31R
$$

NEZ057>060-069>072-079>082-251700-
SOUTHWEST NEBRASKA

CITY           SKY/WX    TMP DP  RH WIND       PRES   REMARKS
NORTH PLATTE   SUNNY     69  48  47 NE10      30.25R
IMPERIAL       SUNNY     67  50  54 NE10      30.26R
LEXINGTON      CLOUDY    68  52  55 E9        30.24S
MCCOOK         MOSUNNY   70  49  47 NE9       30.23R
OGALLALA       SUNNY     68  43  39 NE10      30.27S
$$

NEZ005>010-023>029-035>040-094-251700-
NORTH CENTRAL NEBRASKA

CITY           SKY/WX    TMP DP  RH WIND       PRES   REMARKS
VALENTINE      SUNNY     65  45  48 N13       30.27S
AINSWORTH      SUNNY     61  49  65 N10       30.26S
BROKEN BOW     SUNNY     66  49  54 NE10      30.25R
O`NEILL        PTSUNNY   65  49  54 N10       30.24R
ORD            PTSUNNY   68  47  46 N13       30.22R
THEDFORD       MOSUNNY   64  47  53 N9        30.28R
$$

NEZ041-046>049-061>064-073>077-083>087-251700-
SOUTH CENTRAL NEBRASKA

CITY           SKY/WX    TMP DP  RH WIND       PRES   REMARKS
GRAND ISLAND   MOSUNNY   68  55  63 N12       30.21R
AURORA         CLOUDY    68  58  72 N7        30.20R
HASTINGS       CLOUDY    66  57  72 N7        30.21R
HEBRON         CLOUDY    65  60  83 NW5       30.18R
HOLDREGE       CLOUDY    67  55  65 N7        30.22R
KEARNEY *      CLOUDY    68  54  60 N9        30.21R
YORK           CLOUDY    66  59  77 NE6       30.19S
$$

NEZ011>018-030>034-042>045-251700-
NORTHEAST NEBRASKA

CITY           SKY/WX    TMP DP  RH WIND       PRES   REMARKS
NORFOLK        CLOUDY    65  54  67 N9        30.19R
ALBION         CLOUDY    65  52  62 N9        30.21R
BLAIR          MOSUNNY   66  60  82 N6        30.13S
FREMONT        CLOUDY    63  61  91 W5        30.16R
TEKAMAH        CLOUDY    65  62  90 N6        30.14S
WAYNE          CLOUDY    63  56  79 N9        30.19R
$$

NEZ050>053-065>068-078-088>093-251700-
SOUTHEAST NEBRASKA

CITY           SKY/WX    TMP DP  RH WIND       PRES   REMARKS
LINCOLN        CLOUDY    65  61  87 NW6       30.16R
OMAHA EPPLEY   CLOUDY    65  60  84 N5        30.12F
BEATRICE       CLOUDY    63  60  90 NE3       30.14R
FALLS CITY     CLOUDY    67  63  87 VRB7      30.10F
NEBRASKA CITY  CLOUDY    64  64  98 NE6       30.11S
PLATTSMOUTH    DRIZZLE   65  62  90 N3        30.12F
$$

NEZ044-045-051>053-067-251700-
OMAHA AREA

CITY           SKY/WX    TMP DP  RH WIND       PRES   REMARKS
OMAHA EPPLEY   CLOUDY    65  60  84 N5        30.12F
BLAIR          MOSUNNY   66  60  82 N6        30.13S
FREMONT        CLOUDY    63  61  91 W5        30.16R
MILLARD        MOSUNNY   67  60  78 CALM      30.12S
OFFUTT AFB     CLOUDY    64  62  91 NE3       30.11F
PLATTSMOUTH    DRIZZLE   65  62  90 N3        30.12F
WAHOO          FAIR      63  61  91 NW5       30.16R
$$




USA.gov is the U.S. government's official web portal to all federal, state and local government web resources and services.